START_TIME,STEP,MOV.,H8,t_acc.,H43,t_acc.,M25,t_acc.,H9,t_acc.
1979-07-22 12:00:29.130 ,3,0,0.,12.0,0.,12.0,0.,12.0,0.,12.0
1979-07-22 12:00:41.130 ,3,0,0.,12.0,0.,12.0,0.,12.0,0.,12.0
1979-07-22 12:00:53.130 ,2,0,0.,12.0,0.,12.0,0.,12.0,0.,12.0
1979-07-22 12:01:05.130 ,2,0,0.,12.0,0.,12.0,0.,12.0,0.,12.0
1979-07-22 12:01:17.130 ,2,0,0.,12.0,0.,12.0,0.,12.0,0.,12.0
1979-07-22 12:01:29.130 ,2,0,0.,12.0,0.,12.0,0.,12.0,0.,12.0
1979-07-22 12:01:41.130 ,1,0,0.,12.0,0.,12.0,0.,12.0,0.,12.0
1979-07-22 12:01:53.130 ,1,0,0.,12.0,0.,12.0,0.,12.0,0.,12.0
1979-07-22 12:02:05.130 ,1,0,0.,12.0,0.,12.0,0.,12.0,0.,12.0
1979-07-22 12:02:17.130 ,1,0,0.,12.0,0.,12.0,0.,12.0,0.,12.0
1979-07-22 12:02:29.130 ,0,0,0.,12.0,0.,12.0,0.,12.0,0.,12.0
1979-07-22 12:02:41.130 ,0,0,0.,12.0,0.,12.0,0.,12.0,0.,12.0
1979-07-22 12:02:53.130 ,0,0,0.,12.0,0.,12.0,0.,12.0,0.,12.0
1979-07-22 12:03:05.130 ,0,0,0.,12.0,0.,12.0,0.,12.0,0.,12.0
1979-07-22 12:03:17.130 ,0,0,0.,12.0,0.,12.0,0.,12.0,0.,12.0
1979-07-22 12:03:29.130 ,0,0,0.,12.0,0.,12.0,0.,12.0,0.,12.0
1979-07-22 12:03:41.130 ,0,0,0.,12.0,0.,12.0,0.,12.0,0.,12.0
1979-07-22 12:03:53.130 ,0,0,1.,12.0,0.,12.0,0.,12.0,0.,12.0
1979-07-22 12:04:05.130 ,1,0,0.,12.0,0.,12.0,0.,12.0,0.,12.0
1979-07-22 12:04:17.130 ,1,0,0.,12.0,0.,12.0,0.,12.0,0.,12.0
1979-07-22 12:04:29.130 ,1,0,0.,12.0,0.,12.0,0.,12.0,0.,12.0
1979-07-22 12:04:41.130 ,1,0,0.,12.0,0.,12.0,0.,12.0,0.,12.0
1979-07-22 12:04:53.130 ,2,0,0.,12.0,0.,12.0,0.,12.0,0.,12.0
1979-07-22 12:05:05.130 ,2,0,0.,12.0,0.,12.0,0.,12.0,0.,12.0
1979-07-22 12:05:17.130 ,2,0,0.,12.0,0.,12.0,0.,12.0,0.,12.0
1979-07-22 12:05:29.130 ,2,0,0.,12.0,0.,12.0,0.,12.0,0.,12.0
1979-07-22 12:05:41.130 ,3,0,0.,12.0,0.,12.0,0.,12.0,0.,12.0
1979-07-22 12:05:53.130 ,3,0,0.,12.0,0.,12.0,0.,12.0,0.,12.0
1979-07-22 12:06:05.130 ,3,0,0.,12.0,0.,12.0,0.,12.0,0.,12.0
1979-07-22 12:06:17.130 ,3,0,0.,12.0,0.,12.0,0.,12.0,0.,12.0
1979-07-22 12:06:29.130 ,4,0,0.,12.0,0.,12.0,0.,12.0,0.,12.0
1979-07-22 12:06:41.130 ,4,0,0.,12.0,0.,12.0,0.,12.0,0.,12.0
1979-07-22 12:06:53.130 ,4,0,0.,12.0,0.,12.0,0.,12.0,0.,12.0
1979-07-22 12:07:05.130 ,4,0,0.,12.0,0.,12.0,0.,12.0,0.,12.0
1979-07-22 12:06:53.130 ,4,0,0.,12.0,0.,12.0,0.,12.0,0.,12.0
1979-07-22 12:07:05.130 ,4,0,0.,12.0,0.,12.0,0.,12.0,0.,12.0
1979-07-22 12:07:17.130 ,5,0,0.,12.0,0.,12.0,0.,12.0,0.,12.0
1979-07-22 12:07:29.130 ,5,0,0.,12.0,0.,12.0,0.,12.0,0.,12.0
1979-07-22 12:07:41.130 ,5,0,0.,12.0,0.,12.0,0.,12.0,0.,12.0
1979-07-22 12:07:53.130 ,5,0,0.,12.0,0.,12.0,0.,12.0,0.,12.0
1979-07-22 12:08:05.130 ,6,0,0.,12.0,0.,12.0,0.,12.0,0.,12.0
1979-07-22 12:08:17.130 ,6,0,0.,12.0,0.,12.0,0.,12.0,0.,12.0
1979-07-22 12:08:29.130 ,6,0,0.,12.0,0.,12.0,0.,12.0,0.,12.0
1979-07-22 12:08:41.130 ,6,0,1.,12.0,0.,12.0,0.,12.0,0.,12.0
1979-07-22 12:09:41.130 ,0,0,0.,12.0,0.,12.0,0.,12.0,0.,12.0
1979-07-22 12:09:53.130 ,0,0,0.,12.0,0.,12.0,0.,12.0,0.,12.0
1979-07-22 12:10:05.130 ,0,0,0.,12.0,0.,12.0,0.,12.0,0.,12.0
1979-07-22 12:10:17.130 ,0,0,0.,12.0,0.,12.0,0.,12.0,0.,12.0
1979-07-22 12:10:29.130 ,6,0,0.,12.0,0.,12.0,0.,12.0,0.,12.0
1979-07-22 12:10:41.130 ,6,0,0.,12.0,0.,12.0,0.,12.0,0.,12.0
1979-07-22 12:10:53.130 ,6,0,0.,12.0,0.,12.0,0.,12.0,0.,12.0
1979-07-22 12:11:05.130 ,6,0,0.,12.0,0.,12.0,0.,12.0,0.,12.0
1979-07-22 12:11:17.130 ,5,0,0.,12.0,0.,12.0,0.,12.0,0.,12.0
1979-07-22 12:11:29.130 ,5,0,0.,12.0,0.,12.0,0.,12.0,0.,12.0
1979-07-22 12:11:41.130 ,5,0,0.,12.0,0.,12.0,0.,12.0,0.,12.0
1979-07-22 12:11:53.130 ,5,0,0.,12.0,0.,12.0,0.,12.0,0.,12.0
1979-07-22 12:12:05.130 ,4,0,0.,12.0,0.,12.0,0.,12.0,0.,12.0
1979-07-22 12:12:17.130 ,4,0,0.,12.0,0.,12.0,0.,12.0,0.,12.0
1979-07-22 12:12:29.130 ,4,0,0.,12.0,0.,12.0,0.,12.0,0.,12.0
1979-07-22 12:12:41.130 ,4,0,0.,12.0,0.,12.0,0.,12.0,0.,12.0
1979-07-22 12:12:53.130 ,3,0,0.,12.0,0.,12.0,0.,12.0,0.,12.0
1979-07-22 12:13:05.130 ,3,0,0.,12.0,0.,12.0,0.,12.0,0.,12.0
1979-07-22 12:13:17.130 ,3,0,0.,12.0,0.,12.0,1.,12.0,0.,12.0
1979-07-22 12:13:29.130 ,3,0,0.,12.0,0.,12.0,0.,12.0,0.,12.0
1979-07-22 12:13:41.130 ,2,0,0.,12.0,0.,12.0,0.,12.0,0.,12.0
1979-07-22 12:13:53.130 ,2,0,0.,12.0,0.,12.0,0.,12.0,0.,12.0
1979-07-22 12:14:05.130 ,2,0,0.,12.0,0.,12.0,0.,12.0,0.,12.0
1979-07-22 12:14:17.130 ,2,0,0.,12.0,0.,12.0,0.,12.0,0.,12.0
1979-07-22 12:14:29.130 ,1,0,0.,12.0,0.,12.0,0.,12.0,0.,12.0
1979-07-22 12:14:41.130 ,1,0,0.,12.0,0.,12.0,0.,12.0,0.,12.0
1979-07-22 12:14:53.130 ,1,0,0.,12.0,0.,12.0,0.,12.0,0.,12.0
1979-07-22 12:15:05.130 ,1,0,0.,12.0,0.,12.0,0.,12.0,0.,12.0
1979-07-22 12:15:17.130 ,0,0,0.,12.0,0.,12.0,0.,12.0,0.,12.0
1979-07-22 12:15:29.130 ,0,0,0.,12.0,0.,12.0,0.,12.0,0.,12.0
1979-07-22 12:15:41.130 ,0,0,0.,12.0,0.,12.0,0.,12.0,0.,12.0
1979-07-22 12:15:53.130 ,0,0,0.,12.0,0.,12.0,0.,12.0,0.,12.0
1979-07-22 12:16:05.130 ,0,0,0.,12.0,0.,12.0,0.,12.0,0.,12.0
1979-07-22 12:16:17.130 ,0,0,0.,12.0,0.,12.0,0.,12.0,0.,12.0
1979-07-22 12:16:29.130 ,0,0,0.,12.0,0.,12.0,0.,12.0,0.,12.0
1979-07-22 12:16:41.130 ,0,0,0.,12.0,0.,12.0,0.,12.0,0.,12.0
1979-07-22 12:16:53.130 ,1,0,0.,12.0,0.,12.0,0.,12.0,0.,12.0
1979-07-22 12:17:05.130 ,1,0,0.,12.0,0.,12.0,0.,12.0,0.,12.0
1979-07-22 12:17:17.130 ,1,0,0.,12.0,0.,12.0,0.,12.0,0.,12.0
1979-07-22 12:17:29.130 ,1,0,0.,12.0,0.,12.0,0.,12.0,0.,12.0
1979-07-22 12:17:41.130 ,2,0,0.,12.0,0.,12.0,0.,12.0,0.,12.0
1979-07-22 12:17:53.130 ,2,0,0.,12.0,0.,12.0,0.,12.0,0.,12.0
1979-07-22 12:18:05.130 ,2,0,0.,12.0,0.,12.0,0.,12.0,0.,12.0
1979-07-22 12:18:17.130 ,2,0,0.,12.0,0.,12.0,0.,12.0,0.,12.0
1979-07-22 12:18:29.130 ,3,0,0.,12.0,0.,12.0,0.,12.0,0.,12.0
1979-07-22 12:18:41.130 ,3,0,0.,12.0,0.,12.0,0.,12.0,0.,12.0
1979-07-22 12:18:53.130 ,3,0,0.,12.0,0.,12.0,0.,12.0,0.,12.0
1979-07-22 12:19:05.130 ,3,0,0.,12.0,0.,12.0,0.,12.0,0.,12.0
1979-07-22 12:19:17.130 ,4,0,0.,12.0,0.,12.0,0.,12.0,0.,12.0
1979-07-22 12:19:29.130 ,4,0,0.,12.0,0.,12.0,0.,12.0,0.,12.0
1979-07-22 12:19:41.130 ,4,0,0.,12.0,0.,12.0,0.,12.0,0.,12.0
1979-07-22 12:19:53.130 ,4,0,0.,12.0,0.,12.0,0.,12.0,0.,12.0
1979-07-22 12:20:05.130 ,5,0,0.,12.0,0.,12.0,0.,12.0,0.,12.0
1979-07-22 12:20:17.130 ,5,0,0.,12.0,0.,12.0,0.,12.0,0.,12.0
1979-07-22 12:20:29.130 ,5,0,0.,12.0,0.,12.0,0.,12.0,0.,12.0
1979-07-22 12:20:41.130 ,5,0,0.,12.0,0.,12.0,0.,12.0,0.,12.0
1979-07-22 12:20:53.130 ,6,0,0.,12.0,0.,12.0,0.,12.0,0.,12.0
1979-07-22 12:21:05.130 ,6,0,0.,12.0,0.,12.0,0.,12.0,0.,12.0
1979-07-22 12:21:17.130 ,6,0,0.,12.0,0.,12.0,0.,12.0,0.,12.0
1979-07-22 12:21:29.130 ,6,0,0.,12.0,0.,12.0,0.,12.0,0.,12.0
1979-07-22 12:21:41.130 ,7,0,0.,12.0,0.,12.0,0.,12.0,0.,12.0
1979-07-22 12:21:53.130 ,7,0,0.,12.0,0.,12.0,0.,12.0,0.,12.0
1979-07-22 12:22:05.130 ,7,0,0.,12.0,0.,12.0,0.,12.0,0.,12.0
1979-07-22 12:22:17.130 ,7,0,0.,12.0,0.,12.0,0.,12.0,0.,12.0
1979-07-22 12:22:29.130 ,7,0,0.,12.0,0.,12.0,0.,12.0,0.,12.0
1979-07-22 12:22:41.130 ,7,0,0.,12.0,0.,12.0,0.,12.0,0.,12.0
1979-07-22 12:22:53.130 ,7,0,0.,12.0,0.,12.0,0.,12.0,0.,12.0
1979-07-22 12:23:05.130 ,7,0,0.,12.0,0.,12.0,0.,12.0,0.,12.0
1979-07-22 12:23:17.130 ,6,0,0.,12.0,0.,12.0,0.,12.0,0.,12.0
1979-07-22 12:23:29.130 ,6,0,0.,12.0,0.,12.0,0.,12.0,0.,12.0
1979-07-22 12:23:41.130 ,6,0,0.,12.0,0.,12.0,0.,12.0,0.,12.0
1979-07-22 12:23:53.130 ,6,0,0.,12.0,0.,12.0,0.,12.0,0.,12.0
1979-07-22 12:24:05.130 ,5,0,0.,12.0,0.,12.0,0.,12.0,0.,12.0
1979-07-22 12:24:17.130 ,5,0,0.,12.0,0.,12.0,0.,12.0,0.,12.0
1979-07-22 12:24:29.130 ,5,0,0.,12.0,0.,12.0,0.,12.0,0.,12.0
1979-07-22 12:24:41.130 ,5,0,0.,12.0,0.,12.0,0.,12.0,0.,12.0
1979-07-22 12:24:53.130 ,4,0,0.,12.0,0.,12.0,0.,12.0,0.,12.0
1979-07-22 12:25:05.130 ,4,0,0.,12.0,0.,12.0,0.,12.0,0.,12.0
1979-07-22 12:25:17.130 ,4,0,0.,12.0,0.,12.0,0.,12.0,0.,12.0
1979-07-22 12:25:29.130 ,4,0,0.,12.0,0.,12.0,0.,12.0,0.,12.0
1979-07-22 12:25:41.130 ,3,0,0.,12.0,0.,12.0,0.,12.0,0.,12.0
1979-07-22 12:25:53.130 ,3,0,0.,12.0,0.,12.0,0.,12.0,0.,12.0
1979-07-22 12:26:05.130 ,3,0,0.,12.0,0.,12.0,0.,12.0,0.,12.0
1979-07-22 12:26:17.130 ,3,0,0.,12.0,0.,12.0,0.,12.0,0.,12.0
1979-07-22 12:26:29.130 ,2,0,0.,12.0,0.,12.0,0.,12.0,0.,12.0
1979-07-22 12:26:41.130 ,2,0,0.,12.0,0.,12.0,0.,12.0,0.,12.0
1979-07-22 12:26:53.130 ,2,0,0.,12.0,0.,12.0,0.,12.0,0.,12.0
1979-07-22 12:27:05.130 ,2,0,0.,12.0,0.,12.0,0.,12.0,0.,12.0
1979-07-22 12:27:17.130 ,1,0,0.,12.0,0.,12.0,0.,12.0,0.,12.0
1979-07-22 12:27:29.130 ,1,0,0.,12.0,0.,12.0,0.,12.0,0.,12.0
1979-07-22 12:27:41.130 ,1,0,0.,12.0,0.,12.0,0.,12.0,0.,12.0
1979-07-22 12:27:53.130 ,1,0,0.,12.0,0.,12.0,0.,12.0,0.,12.0
1979-07-22 12:28:05.130 ,0,0,0.,12.0,0.,12.0,0.,12.0,0.,12.0
1979-07-22 12:28:17.130 ,0,0,0.,12.0,0.,12.0,0.,12.0,0.,12.0
1979-07-22 12:28:29.130 ,0,0,0.,12.0,0.,12.0,0.,12.0,0.,12.0
1979-07-22 12:28:41.130 ,0,0,0.,12.0,0.,12.0,0.,12.0,0.,12.0
1979-07-22 12:28:53.130 ,0,0,0.,12.0,0.,12.0,0.,12.0,0.,12.0
1979-07-22 12:29:05.130 ,0,0,0.,12.0,0.,12.0,0.,12.0,0.,12.0
1979-07-22 12:29:17.130 ,0,0,0.,12.0,0.,12.0,0.,12.0,0.,12.0
1979-07-22 12:29:29.130 ,0,0,0.,12.0,0.,12.0,0.,12.0,0.,12.0
1979-07-22 12:29:41.130 ,1,0,0.,12.0,0.,12.0,0.,12.0,0.,12.0
1979-07-22 12:29:53.130 ,1,0,0.,12.0,0.,12.0,0.,12.0,0.,12.0
1979-07-22 12:30:05.130 ,1,0,0.,12.0,0.,12.0,0.,12.0,0.,12.0
1979-07-22 12:30:17.130 ,1,0,0.,12.0,0.,12.0,0.,12.0,0.,12.0
1979-07-22 12:30:29.130 ,2,0,0.,12.0,0.,12.0,0.,12.0,0.,12.0
1979-07-22 12:30:41.130 ,2,0,0.,12.0,0.,12.0,0.,12.0,0.,12.0
1979-07-22 12:30:53.130 ,2,0,1.,12.0,0.,12.0,0.,12.0,0.,12.0
1979-07-22 12:31:05.130 ,2,0,1.,12.0,0.,12.0,0.,12.0,0.,12.0
1979-07-22 12:31:17.130 ,3,0,0.,12.0,0.,12.0,0.,12.0,0.,12.0
1979-07-22 12:31:29.130 ,3,0,0.,12.0,0.,12.0,0.,12.0,0.,12.0
1979-07-22 12:31:41.130 ,3,0,0.,12.0,0.,12.0,0.,12.0,0.,12.0
1979-07-22 12:31:53.130 ,3,0,0.,12.0,0.,12.0,0.,12.0,0.,12.0
1979-07-22 12:32:05.130 ,4,0,1.,12.0,0.,12.0,0.,12.0,0.,12.0
1979-07-22 12:32:17.130 ,4,0,0.,12.0,0.,12.0,0.,12.0,0.,12.0
1979-07-22 12:32:29.130 ,4,0,0.,12.0,0.,12.0,0.,12.0,0.,12.0
1979-07-22 12:32:41.130 ,4,0,0.,12.0,0.,12.0,0.,12.0,0.,12.0
1979-07-22 12:32:53.130 ,5,0,0.,12.0,0.,12.0,0.,12.0,0.,12.0
1979-07-22 12:33:05.130 ,5,0,0.,12.0,0.,12.0,0.,12.0,0.,12.0
1979-07-22 12:33:17.130 ,5,0,0.,12.0,0.,12.0,0.,12.0,0.,12.0
1979-07-22 12:33:29.130 ,5,0,0.,12.0,0.,12.0,0.,12.0,0.,12.0
1979-07-22 12:33:41.130 ,6,0,0.,12.0,0.,12.0,0.,12.0,0.,12.0
1979-07-22 12:33:53.130 ,6,0,0.,12.0,0.,12.0,0.,12.0,0.,12.0
1979-07-22 12:34:05.130 ,6,0,0.,12.0,0.,12.0,0.,12.0,0.,12.0
1979-07-22 12:34:17.130 ,6,0,0.,12.0,0.,12.0,0.,12.0,0.,12.0
1979-07-22 12:34:29.130 ,7,0,0.,12.0,0.,12.0,0.,12.0,0.,12.0
1979-07-22 12:34:41.130 ,7,0,0.,12.0,0.,12.0,0.,12.0,0.,12.0
1979-07-22 12:34:53.130 ,7,0,0.,12.0,0.,12.0,0.,12.0,0.,12.0
1979-07-22 12:35:05.130 ,7,0,0.,12.0,0.,12.0,0.,12.0,0.,12.0
1979-07-22 12:35:17.130 ,7,0,0.,12.0,0.,12.0,0.,12.0,0.,12.0
1979-07-22 12:35:29.130 ,7,0,0.,12.0,0.,12.0,0.,12.0,0.,12.0
1979-07-22 12:35:41.130 ,7,0,0.,12.0,0.,12.0,0.,12.0,0.,12.0
1979-07-22 12:35:53.130 ,7,0,0.,12.0,0.,12.0,0.,12.0,0.,12.0
1979-07-22 12:36:05.130 ,6,0,0.,12.0,0.,12.0,0.,12.0,0.,12.0
1979-07-22 12:36:17.130 ,6,0,0.,12.0,0.,12.0,0.,12.0,0.,12.0
1979-07-22 12:36:29.130 ,6,0,0.,12.0,0.,12.0,0.,12.0,0.,12.0
1979-07-22 12:36:41.130 ,6,0,0.,12.0,0.,12.0,0.,12.0,0.,12.0
1979-07-22 12:36:53.130 ,5,0,0.,12.0,0.,12.0,0.,12.0,0.,12.0
1979-07-22 12:37:05.130 ,5,0,0.,12.0,0.,12.0,0.,12.0,0.,12.0
1979-07-22 12:37:17.130 ,5,0,0.,12.0,0.,12.0,0.,12.0,0.,12.0
1979-07-22 12:37:29.130 ,5,0,0.,12.0,0.,12.0,0.,12.0,0.,12.0
1979-07-22 12:37:41.130 ,4,0,0.,12.0,0.,12.0,0.,12.0,0.,12.0
1979-07-22 12:37:53.130 ,4,0,0.,12.0,0.,12.0,0.,12.0,0.,12.0
1979-07-22 12:38:05.130 ,4,0,0.,12.0,0.,12.0,0.,12.0,0.,12.0
1979-07-22 12:38:17.130 ,4,0,0.,12.0,0.,12.0,0.,12.0,0.,12.0
1979-07-22 12:38:29.130 ,3,0,0.,12.0,0.,12.0,0.,12.0,0.,12.0
1979-07-22 12:38:41.130 ,3,0,0.,12.0,0.,12.0,0.,12.0,0.,12.0
1979-07-22 12:38:53.130 ,3,0,0.,12.0,0.,12.0,0.,12.0,0.,12.0
1979-07-22 12:39:05.130 ,3,0,0.,12.0,0.,12.0,0.,12.0,0.,12.0
1979-07-22 12:39:17.130 ,2,0,0.,12.0,0.,12.0,0.,12.0,0.,12.0
1979-07-22 12:39:29.130 ,2,0,0.,12.0,0.,12.0,0.,12.0,0.,12.0
1979-07-22 12:39:41.130 ,2,0,0.,12.0,0.,12.0,0.,12.0,0.,12.0
1979-07-22 12:39:53.130 ,2,0,0.,12.0,0.,12.0,0.,12.0,0.,12.0
1979-07-22 12:40:05.130 ,1,0,0.,12.0,0.,12.0,0.,12.0,0.,12.0
1979-07-22 12:40:17.130 ,1,0,0.,12.0,0.,12.0,0.,12.0,0.,12.0
